• In Hungary
  • List of Countries
  • For 7 days
  • Water Temperature
  • Satellite Maps
  • Weather Map
  • News
  • Weather Widgets
  • user-avatar
    Login

    Hourly Weather Ust-Muya

    Today, 21 September, Friday

    Time Temperature Precipitation Wind Pressure Humidity
    00:00 +5°C° 0.3 mm 2 mps 721 mmHg 90%
    01:00 +4°C° 0.3 mm 2 mps 721 mmHg 90%
    02:00 +4°C° 0.3 mm 2 mps 721 mmHg 91%
    03:00 +4°C° 0.1 mm 2 mps 721 mmHg 91%
    04:00 +4°C° 0.1 mm 2 mps 721 mmHg 91%
    05:00 +3°C° 0.1 mm 2 mps 721 mmHg 91%
    06:00 +4°C° 0 mm 2 mps 721 mmHg 89%
    07:00 +5°C° 0 mm 2 mps 721 mmHg 88%
    08:00 +5°C° 0 mm 2 mps 721 mmHg 86%
    09:00 +6°C° 0.1 mm 2 mps 721 mmHg 84%
    10:00 +7°C° 0.1 mm 2 mps 722 mmHg 82%
    11:00 +7°C° 0.1 mm 2 mps 722 mmHg 79%
    12:00 +8°C° 0 mm 2 mps 722 mmHg 78%
    13:00 +8°C° 0 mm 3 mps 722 mmHg 77%
    14:00 +8°C° 0 mm 3 mps 722 mmHg 75%
    15:00 +8°C° 0 mm 3 mps 722 mmHg 76%
    16:00 +8°C° 0 mm 2 mps 722 mmHg 77%
    17:00 +8°C° 0 mm 2 mps 722 mmHg 78%
    18:00 +6°C° 0 mm 2 mps 723 mmHg 80%
    19:00 +5°C° 0 mm 2 mps 723 mmHg 83%
    20:00 +3°C° 0 mm 2 mps 724 mmHg 86%
    21:00 +3°C° 0 mm 2 mps 724 mmHg 86%
    22:00 +3°C° 0 mm 2 mps 724 mmHg 85%
    23:00 +2°C° 0 mm 2 mps 725 mmHg 85%

    Tomorrow, 22 September, Saturday

    Time Temperature Precipitation Wind Pressure Humidity
    00:00 +2°C° 0 mm 2 mps 725 mmHg 85%
    01:00 +2°C° 0 mm 2 mps 725 mmHg 85%
    02:00 +2°C° 0 mm 2 mps 725 mmHg 85%
    03:00 +2°C° 0 mm 2 mps 725 mmHg 85%
    04:00 +2°C° 0 mm 2 mps 725 mmHg 85%
    05:00 +1°C° 0 mm 2 mps 725 mmHg 86%
    06:00 +2°C° 0 mm 2 mps 726 mmHg 83%
    07:00 +3°C° 0 mm 2 mps 726 mmHg 81%
    08:00 +5°C° 0 mm 1 mps 726 mmHg 78%
    09:00 +6°C° 0 mm 2 mps 726 mmHg 75%
    10:00 +7°C° 0 mm 2 mps 726 mmHg 73%
    11:00 +8°C° 0 mm 2 mps 726 mmHg 70%
    12:00 +9°C° 0 mm 2 mps 726 mmHg 68%
    13:00 +9°C° 0 mm 2 mps 725 mmHg 66%
    14:00 +10°C° 0 mm 2 mps 725 mmHg 65%
    15:00 +9°C° 0 mm 2 mps 725 mmHg 66%
    16:00 +9°C° 0 mm 2 mps 725 mmHg 68%
    17:00 +9°C° 0 mm 2 mps 725 mmHg 69%
    18:00 +7°C° 0 mm 2 mps 725 mmHg 73%
    19:00 +5°C° 0 mm 2 mps 726 mmHg 77%
    20:00 +3°C° 0 mm 2 mps 726 mmHg 81%
    21:00 +4°C° 0 mm 1 mps 726 mmHg 81%
    22:00 +4°C° 0 mm 1 mps 726 mmHg 81%
    23:00 +3°C° 0 mm 1 mps 727 mmHg 81%

    Day after tomorrow, 23 September, Sunday

    Time Temperature Precipitation Wind Pressure Humidity
    00:00 +3°C° 0 mm 1 mps 727 mmHg 81%
    01:00 +3°C° 0 mm 1 mps 727 mmHg 81%
    02:00 +3°C° 0 mm 1 mps 726 mmHg 81%
    03:00 +3°C° 0 mm 1 mps 726 mmHg 81%
    04:00 +3°C° 0 mm 1 mps 726 mmHg 81%
    05:00 +3°C° 0 mm 1 mps 726 mmHg 81%
    06:00 +4°C° 0 mm 1 mps 726 mmHg 77%
    07:00 +5°C° 0 mm 1 mps 727 mmHg 73%
    08:00 +6°C° 0 mm 0 mps 727 mmHg 69%
    09:00 +7°C° 0 mm 0 mps 726 mmHg 65%
    10:00 +10°C° 0 mm 1 mps 726 mmHg 61%
    11:00 +11°C° 0 mm 1 mps 726 mmHg 58%
    12:00 +12°C° 0 mm 1 mps 725 mmHg 56%
    13:00 +13°C° 0 mm 1 mps 725 mmHg 54%
    14:00 +14°C° 0 mm 1 mps 724 mmHg 53%
    15:00 +13°C° 0 mm 1 mps 724 mmHg 57%
    16:00 +11°C° 0 mm 0 mps 724 mmHg 61%
    17:00 +11°C° 0 mm 0 mps 724 mmHg 65%
    18:00 +9°C° 0 mm 0 mps 724 mmHg 68%
    19:00 +8°C° 0 mm 1 mps 724 mmHg 72%
    20:00 +6°C° 0 mm 1 mps 724 mmHg 75%
    21:00 +6°C° 0 mm 1 mps 724 mmHg 75%
    22:00 +6°C° 0 mm 1 mps 724 mmHg 76%
    23:00 +5°C° 0 mm 1 mps 724 mmHg 76%

    24 September, Monday

    Time Temperature Precipitation Wind Pressure Humidity
    00:00 +5°C° 0 mm 1 mps 724 mmHg 77%
    01:00 +5°C° 0 mm 1 mps 724 mmHg 77%
    02:00 +5°C° 0 mm 1 mps 723 mmHg 78%
    03:00 +5°C° 0 mm 1 mps 723 mmHg 78%
    04:00 +5°C° 0 mm 1 mps 723 mmHg 78%
    05:00 +4°C° 0 mm 1 mps 723 mmHg 78%
    06:00 +6°C° 0 mm 1 mps 723 mmHg 74%
    07:00 +6°C° 0 mm 0 mps 723 mmHg 70%
    08:00 +7°C° 0 mm 0 mps 723 mmHg 66%
    09:00 +10°C° 0 mm 1 mps 723 mmHg 62%
    10:00 +12°C° 0 mm 1 mps 722 mmHg 58%
    11:00 +13°C° 0 mm 1 mps 722 mmHg 54%
    12:00 +14°C° 0 mm 1 mps 722 mmHg 52%
    13:00 +14°C° 0 mm 1 mps 721 mmHg 50%
    14:00 +15°C° 0 mm 1 mps 721 mmHg 48%
    15:00 +14°C° 0 mm 1 mps 720 mmHg 53%
    16:00 +13°C° 0 mm 1 mps 720 mmHg 57%
    17:00 +13°C° 0 mm 1 mps 720 mmHg 61%
    18:00 +11°C° 0 mm 1 mps 720 mmHg 65%
    19:00 +9°C° 0 mm 1 mps 720 mmHg 68%
    20:00 +7°C° 0 mm 1 mps 720 mmHg 72%
    21:00 +7°C° 0 mm 1 mps 720 mmHg 73%
    22:00 +7°C° 0 mm 1 mps 720 mmHg 73%
    23:00 +6°C° 0 mm 1 mps 720 mmHg 74%

    25 September, Tuesday

    Time Temperature Precipitation Wind Pressure Humidity
    00:00 +6°C° 0 mm 1 mps 720 mmHg 74%
    01:00 +6°C° 0 mm 1 mps 720 mmHg 74%
    02:00 +6°C° 0 mm 1 mps 720 mmHg 74%
    03:00 +5°C° 0 mm 1 mps 720 mmHg 75%
    04:00 +5°C° 0 mm 1 mps 720 mmHg 76%
    05:00 +5°C° 0 mm 1 mps 720 mmHg 76%
    06:00 +6°C° 0 mm 1 mps 720 mmHg 72%
    07:00 +7°C° 0 mm 1 mps 721 mmHg 69%
    08:00 +8°C° 0 mm 1 mps 721 mmHg 65%
    09:00 +10°C° 0 mm 1 mps 720 mmHg 61%
    10:00 +12°C° 0 mm 1 mps 720 mmHg 56%
    11:00 +13°C° 0 mm 1 mps 720 mmHg 51%
    12:00 +14°C° 0 mm 1 mps 719 mmHg 50%
    13:00 +14°C° 0 mm 1 mps 719 mmHg 48%
    14:00 +15°C° 0 mm 1 mps 719 mmHg 46%
    15:00 +14°C° 0 mm 1 mps 719 mmHg 51%
    16:00 +13°C° 0 mm 1 mps 719 mmHg 56%
    17:00 +13°C° 0 mm 1 mps 719 mmHg 61%
    18:00 +11°C° 0 mm 1 mps 719 mmHg 65%
    19:00 +9°C° 0 mm 1 mps 719 mmHg 69%
    20:00 +7°C° 0 mm 1 mps 719 mmHg 74%
    21:00 +7°C° 0 mm 1 mps 719 mmHg 74%
    22:00 +7°C° 0 mm 1 mps 719 mmHg 75%
    23:00 +7°C° 0 mm 1 mps 720 mmHg 76%

    26 September, Wednesday

    Time Temperature Precipitation Wind Pressure Humidity
    00:00 +6°C° 0 mm 1 mps 719 mmHg 77%
    01:00 +6°C° 0 mm 1 mps 719 mmHg 78%
    02:00 +6°C° 0 mm 1 mps 719 mmHg 79%
    03:00 +6°C° 0 mm 1 mps 719 mmHg 80%
    04:00 +5°C° 0 mm 1 mps 719 mmHg 80%
    05:00 +5°C° 0 mm 1 mps 719 mmHg 81%
    06:00 +6°C° 0 mm 1 mps 720 mmHg 77%
    07:00 +7°C° 0 mm 1 mps 720 mmHg 72%
    08:00 +8°C° 0 mm 1 mps 720 mmHg 68%
    09:00 +10°C° 0 mm 1 mps 719 mmHg 64%
    10:00 +12°C° 0 mm 2 mps 719 mmHg 60%
    11:00 +13°C° 0 mm 2 mps 719 mmHg 56%
    12:00 +14°C° 0 mm 2 mps 718 mmHg 55%
    13:00 +14°C° 0 mm 2 mps 718 mmHg 55%
    14:00 +15°C° 0 mm 2 mps 718 mmHg 54%
    15:00 +14°C° 0 mm 2 mps 717 mmHg 59%
    16:00 +14°C° 0 mm 1 mps 717 mmHg 64%
    17:00 +13°C° 0 mm 1 mps 717 mmHg 69%
    18:00 +11°C° 0 mm 1 mps 718 mmHg 73%
    19:00 +10°C° 0 mm 1 mps 718 mmHg 78%
    20:00 +8°C° 0 mm 1 mps 718 mmHg 82%
    21:00 +8°C° 0 mm 1 mps 718 mmHg 83%
    22:00 +8°C° 0 mm 1 mps 718 mmHg 84%
    23:00 +8°C° 0 mm 1 mps 718 mmHg 85%
    Show more